Location: Prairie State College
(41.5244°N, 87.6382°W)
Time: 13:23:33
(UTC-05:00)

Amateur Radio Satellites - All Passes

Search period start: 23 September 2017 12:53
Search period end: 24 September 2017 12:53
Location: Prairie State College, 41.5244°N, 87.6382°W

Satellite Date Start Highest point End Downlink Frequencies (MHz)
Time Altitude Azimuth
SPROUT 23 Sep 12:54:59 12:59:04 42° 98° (E) 13:03:08 437.525
Oscar 19 23 Sep 12:59:07 13:04:02 44° 70° (ENE) 13:08:57 437.125/150
DUCHIFAT 1 23 Sep 13:11:34 13:14:24 18° 267° (W) 13:17:17 145.980
O/OREOS (USA 219) 23 Sep 13:12:22 13:16:35 36° 255° (WSW) 13:20:48 437.305
NO-84 23 Sep 13:14:36 13:18:28 64° 136° (SE) 13:22:02 435.350 FM
PCSat 23 Sep 13:26:48 13:28:12 11° 101° (ESE) 13:29:36 145.827
SO-50 23 Sep 13:29:05 13:32:33 22° 112° (ESE) 13:36:03 436.795
50 SAT 23 Sep 13:34:10 13:36:51 23° 96° (E) 13:39:31 437.505
M-CUBED/EXP-1 PRIME 23 Sep 13:40:18 13:42:40 14° 262° (W) 13:44:58 437.505
BUGSAT 1 23 Sep 13:47:23 13:50:41 24° 265° (W) 13:54:01 437.445
AO-7 23 Sep 13:52:23 13:59:06 28° 55° (NE) 14:05:48 .
UKube-1 23 Sep 13:57:09 14:00:37 23° 95° (E) 14:04:03 .
ESTCUBE 1 23 Sep 14:01:57 14:03:24 11° 299° (WNW) 14:04:49 437.505/2401.250
DX 1 23 Sep 14:03:01 14:07:10 42° 99° (E) 14:11:16 434.975-435.025
ITAMSAT 1 23 Sep 14:06:15 14:08:44 14° 59° (ENE) 14:11:14 435.822/435.867
YUBILEINY 23 Sep 14:14:17 14:21:45 31° 291° (WNW) 14:29:19 435.215
Gurwin Techsat 1B 23 Sep 14:21:09 14:26:16 49° 260° (W) 14:31:26 435.225
VELOX 1 23 Sep 14:30:02 14:33:40 26° 292° (WNW) 14:37:18 145.980
SPROUT 23 Sep 14:31:44 14:34:38 18° 295° (WNW) 14:37:31 437.525
Oscar 19 23 Sep 14:39:28 14:43:31 23° 266° (W) 14:47:35 437.125/150
RS-15 23 Sep 14:44:40 14:56:45 88° 58° (ENE) 15:08:06 29.354- 29.394
NO-84 23 Sep 14:53:14 14:56:06 21° 332° (NNW) 14:58:47 435.350 FM
PCSat 23 Sep 15:05:17 15:10:43 86° 117° (ESE) 15:16:11 145.827
50 SAT 23 Sep 15:06:53 15:09:11 18° 292° (WNW) 15:11:29 437.505
SO-50 23 Sep 15:08:30 15:12:45 41° 309° (NW) 15:17:02 436.795
MOZHAYETS 4 23 Sep 15:15:28 15:18:57 21° 93° (E) 15:22:25
UKube-1 23 Sep 15:32:51 15:36:39 31° 291° (WNW) 15:40:24 .
DX 1 23 Sep 15:40:04 15:43:01 18° 295° (WNW) 15:45:57 434.975-435.025
ITUPSAT 1 23 Sep 15:42:11 15:46:40 37° 98° (E) 15:51:07 437.325
ITAMSAT 1 23 Sep 15:42:19 15:47:29 82° 256° (WSW) 15:52:42 435.822/435.867
AO-7 23 Sep 15:42:52 15:51:10 71° 254° (WSW) 15:59:31 .
DOVE 4 23 Sep 16:00:58 16:02:47 12° 64° (ENE) 16:04:36 437.250
BEESAT 23 Sep 16:18:46 16:23:35 90° 46° (NE) 16:28:23 436.000
PCSat 23 Sep 16:51:16 16:54:50 18° 318° (NW) 16:58:25 145.827
MOZHAYETS 4 23 Sep 16:51:54 16:56:14 39° 289° (WNW) 17:00:31
RS-15 23 Sep 16:58:58 17:07:29 24° 260° (W) 17:15:45 29.354- 29.394
XW-2D 23 Sep 17:12:43 17:15:26 19° 67° (ENE) 17:18:09 145.860 - 145.880
KKS-1 23 Sep 17:13:03 17:16:42 24° 95° (E) 17:20:20 437.445
HO-68 23 Sep 17:15:07 17:18:58 16° 52° (NE) 17:22:50 435.675
CUBESAT XI-V 23 Sep 17:17:34 17:22:13 83° 101° (E) 17:26:49 437.345
ITUPSAT 1 23 Sep 17:20:25 17:24:17 24° 294° (WNW) 17:28:06 437.325
XW-2B 23 Sep 17:24:36 17:27:43 24° 69° (ENE) 17:30:52 145.730 - 145.750
XW-2F 23 Sep 17:24:45 17:27:48 23° 69° (ENE) 17:30:52 145.980 - 146.000
CUTE-I 23 Sep 17:30:06 17:34:46 32° 67° (ENE) 17:39:26 437.470
DOVE 4 23 Sep 17:35:38 17:40:02 62° 259° (W) 17:44:16 437.250
STARS 23 Sep 17:38:05 17:41:11 19° 93° (E) 17:44:16 437.465
AO-7 23 Sep 17:42:04 17:45:17 13° 273° (W) 17:48:32 .
XW-2C 23 Sep 17:45:19 17:48:59 43° 72° (ENE) 17:52:39 145.795 - 145.815
NUDT-PHONESAT 23 Sep 17:47:58 17:51:20 32° 71° (ENE) 17:54:43 437.300
LilacSat-2 23 Sep 17:57:18 18:01:08 66° 76° (ENE) 18:05:01 437.200
BEESAT 23 Sep 17:59:18 18:00:36 11° 301° (WNW) 18:01:53 436.000
NO-84 23 Sep 18:12:47 18:13:18 10° 15° (NNE) 18:13:48 435.350 FM
KAITUO 1B 23 Sep 18:15:53 18:19:39 77° 76° (ENE) 18:23:29 145.475/437.950
CUTE 1.7 + AOD 2 23 Sep 18:18:30 18:21:48 22° 67° (ENE) 18:25:07 437.475
Tancredo 1 23 Sep 18:36:49 18:38:14 13° 132° (SE) 18:39:40 437.200
XW-2D 23 Sep 18:45:56 18:49:23 31° 264° (W) 18:52:51 145.860 - 145.880
CUBEBUG 2 23 Sep 18:47:00 18:50:28 25° 67° (ENE) 18:54:02 437.445
KKS-1 23 Sep 18:49:20 18:53:14 31° 291° (WNW) 18:57:09 437.445
UWE-3 23 Sep 18:54:36 18:57:32 18° 65° (ENE) 19:00:32 435.000/436.395/437.385
CUBESAT XI-V 23 Sep 18:57:36 18:58:52 11° 300° (WNW) 19:00:09 437.345
HO-68 23 Sep 18:58:25 19:05:32 76° 71° (ENE) 19:12:42 435.675
XW-2F 23 Sep 18:58:38 19:01:48 24° 265° (W) 19:04:59 145.980 - 146.000
XW-2B 23 Sep 18:58:41 19:01:48 23° 265° (W) 19:04:57 145.730 - 145.750
CUTE-I 23 Sep 19:10:00 19:14:44 33° 263° (W) 19:19:30 437.470
STARS 23 Sep 19:13:33 19:17:40 40° 289° (WNW) 19:21:47 437.465
XW-2C 23 Sep 19:21:29 19:23:21 13° 269° (W) 19:25:15 145.795 - 145.815
NUDT-PHONESAT 23 Sep 19:22:49 19:25:16 17° 267° (W) 19:27:44 437.300
SEEDS 23 Sep 19:25:01 19:29:16 74° 75° (ENE) 19:33:29 437.485
XW-2A 23 Sep 19:35:43 19:39:05 67° 77° (ENE) 19:42:31 145.665 - 145.685
Oscar 11 23 Sep 19:38:25 19:41:25 19° 65° (ENE) 19:44:25 .
AO-73 23 Sep 19:38:37 19:42:11 26° 68° (ENE) 19:45:51 145.935
nSIGHT-1 23 Sep 19:41:09 19:42:22 12° 130° (SE) 19:43:35 .
ZACube-1 23 Sep 19:41:13 19:45:00 30° 69° (ENE) 19:48:53 437.345
AAUSAT CUBESAT 2 23 Sep 19:47:50 19:51:55 58° 74° (ENE) 19:56:00 437.432
NO-84 23 Sep 19:48:33 19:51:26 39° 35° (NE) 19:54:10 435.350 FM
CUTE 1.7 + AOD 2 23 Sep 19:53:34 19:57:26 33° 263° (W) 20:01:20 437.475
BEESAT 3 23 Sep 20:08:50 20:12:50 75° 304° (NW) 20:16:54 437.485
Tancredo 1 23 Sep 20:09:50 20:12:27 48° 328° (NNW) 20:15:05 437.200
BEESAT 2 23 Sep 20:16:30 20:20:14 39° 116° (ESE) 20:24:02 435.950
CUBEBUG 2 23 Sep 20:23:16 20:26:58 29° 265° (W) 20:30:46 437.445
STRAND 1 23 Sep 20:24:07 20:29:18 81° 103° (ESE) 20:34:27 437.568
UWE-3 23 Sep 20:29:34 20:33:38 42° 262° (W) 20:37:51 435.000/436.395/437.385
AO-85 23 Sep 20:34:16 20:38:06 63° 120° (ESE) 20:42:00 145.980
ISS 23 Sep 20:35:55 20:38:58 38° 138° (SE) 20:42:03 437.550
Max Valier Satellite 23 Sep 20:46:24 20:48:27 14° 66° (ENE) 20:50:32 145.860
HO-68 23 Sep 20:48:59 20:53:55 20° 269° (W) 20:58:53 435.675
Oscar 11 23 Sep 21:13:06 21:17:13 41° 262° (W) 21:21:22 .
AO-73 23 Sep 21:14:31 21:18:18 29° 265° (W) 21:22:10 145.935
nSIGHT-1 23 Sep 21:15:03 21:18:15 78° 325° (NW) 21:21:30 .
DELFI C3 23 Sep 21:16:02 21:19:48 45° 73° (ENE) 21:23:35 145.870
ZACube-1 23 Sep 21:17:44 21:21:16 24° 266° (W) 21:24:53 437.345
AAUSAT CUBESAT 2 23 Sep 21:26:16 21:27:42 12° 270° (W) 21:29:10 437.432
NO-84 23 Sep 21:26:46 21:28:28 14° 234° (SW) 21:30:07 435.350 FM
TIGRISAT 23 Sep 21:34:35 21:36:43 13° 90° (E) 21:38:50 435.000
EO-88 23 Sep 21:45:06 21:48:41 54° 75° (ENE) 21:52:18 145.990 - 145.960
Tancredo 1 23 Sep 21:46:06 21:47:27 13° 347° (NNW) 21:48:47 437.200
BEESAT 3 23 Sep 21:50:04 21:51:07 11° 323° (NW) 21:52:09 437.485
BEESAT 2 23 Sep 21:54:57 21:58:07 22° 314° (NW) 22:01:19 435.950
SO-50 23 Sep 21:59:15 22:03:02 25° 45° (NE) 22:06:50 436.795
FO-29 23 Sep 22:01:55 22:07:25 76° 103° (ESE) 22:13:34 435.910
STRAND 1 23 Sep 22:05:16 22:07:46 14° 301° (WNW) 22:10:17 437.568
PRISM 23 Sep 22:06:58 22:08:56 13° 92° (E) 22:10:53 437.425
PCSat 23 Sep 22:11:20 22:14:04 14° 38° (NE) 22:16:48 145.827
ISS 23 Sep 22:12:32 22:15:30 30° 335° (NNW) 22:18:28 437.550
AO-85 23 Sep 22:16:42 22:18:55 14° 319° (NW) 22:21:09 145.980
Max Valier Satellite 23 Sep 22:18:27 22:21:56 39° 262° (W) 22:25:27 145.860
YUBILEINY 23 Sep 22:26:21 22:33:39 29° 68° (ENE) 22:40:55 435.215
LO-87 23 Sep 22:41:24 22:44:33 31° 72° (ENE) 22:47:43 145.935 - 145.965
UNISAT 6 23 Sep 22:45:26 22:50:08 78° 101° (E) 22:54:50 437.425
nSIGHT-1 23 Sep 22:52:36 22:55:00 19° 344° (NNW) 22:57:25 .
DELFI C3 23 Sep 22:52:51 22:54:47 13° 269° (W) 22:56:43 145.870
TIGRISAT 23 Sep 23:09:09 23:13:48 66° 285° (WNW) 23:18:27 435.000
ESTCUBE 1 23 Sep 23:21:53 23:26:23 71° 76° (ENE) 23:30:55 437.505/2401.250
Tancredo 1 23 Sep 23:22:04 23:22:51 11° 7° (N) 23:23:38 437.200
POLYITAN 1 23 Sep 23:34:26 23:35:45 11° 90° (E) 23:37:04 437.675
EO-79 23 Sep 23:38:11 23:40:02 12° 91° (E) 23:41:52 145.935-145.965
SO-50 23 Sep 23:39:17 23:43:39 44° 243° (WSW) 23:48:04 436.795
PRISM 23 Sep 23:40:33 23:44:28 48° 288° (WNW) 23:48:22 437.425
SPROUT 23 Sep 23:48:17 23:52:03 32° 70° (ENE) 23:55:51 437.525
FO-29 23 Sep 23:48:52 23:52:02 16° 299° (WNW) 23:55:21 435.910
QB50P2 23 Sep 23:50:47 23:53:55 19° 93° (E) 23:57:02 145.880/145.840
ISS 23 Sep 23:50:49 23:52:45 15° 355° (N) 23:54:41 437.550
VELOX 1 23 Sep 23:50:50 23:54:31 27° 68° (ENE) 23:58:12 145.980
PCSat 23 Sep 23:53:03 23:58:29 70° 59° (ENE) 00:03:52 145.827
AIST 2D 23 Sep 23:58:05 00:01:34 57° 100° (E) 00:05:01 435.315
LO-87 24 Sep 00:16:00 00:18:03 15° 267° (W) 00:20:07 145.935 - 145.965
YUBILEINY 24 Sep 00:22:28 00:31:03 64° 268° (W) 00:39:39 435.215
UNISAT 6 24 Sep 00:24:19 00:26:11 12° 299° (WNW) 00:28:03 437.425
NANOSAT C BR1 24 Sep 00:25:21 00:29:20 37° 98° (E) 00:33:18 145.865
nSIGHT-1 24 Sep 00:30:25 00:32:16 14° 4° (N) 00:34:08 .
UKube-1 24 Sep 00:51:53 00:55:07 21° 66° (ENE) 00:58:21 .
DUCHIFAT 1 24 Sep 00:53:28 00:57:44 70° 103° (ESE) 01:01:58 145.980
Tancredo 1 24 Sep 00:55:37 00:58:00 28° 26° (NNE) 01:00:24 437.200
DX 1 24 Sep 00:58:28 01:02:27 37° 70° (ENE) 01:06:28 434.975-435.025
ESTCUBE 1 24 Sep 01:02:20 01:03:39 11° 271° (W) 01:04:57 437.505/2401.250
POLYITAN 1 24 Sep 01:07:40 01:11:56 63° 286° (WNW) 01:16:10 437.675
Oscar 19 24 Sep 01:11:54 01:14:47 15° 90° (E) 01:17:39 437.125/150
EO-79 24 Sep 01:11:55 01:16:08 56° 286° (WNW) 01:20:19 145.935-145.965
M-CUBED/EXP-1 PRIME 24 Sep 01:16:52 01:19:45 27° 102° (ESE) 01:22:34 437.505
SPROUT 24 Sep 01:24:44 01:27:59 21° 266° (W) 01:31:16 437.525
QB50P2 24 Sep 01:25:52 01:29:48 36° 289° (WNW) 01:33:43 145.880/145.840
VELOX 1 24 Sep 01:27:05 01:30:52 28° 264° (W) 01:34:40 145.980
ISS 24 Sep 01:27:44 01:30:11 19° 16° (NNE) 01:32:37 437.550
BUGSAT 1 24 Sep 01:27:47 01:31:49 43° 99° (E) 01:35:50 437.445
50 SAT 24 Sep 01:35:31 01:38:44 52° 260° (W) 01:42:00 437.505
PCSat 24 Sep 01:38:02 01:41:14 16° 256° (WSW) 01:44:26 145.827
O/OREOS (USA 219) 24 Sep 01:46:04 01:49:41 24° 102° (ESE) 01:53:21 437.305
BEESAT 24 Sep 01:50:37 01:52:38 13° 60° (ENE) 01:54:40 436.000
NANOSAT C BR1 24 Sep 02:01:42 02:04:46 20° 294° (WNW) 02:07:49 145.865
nSIGHT-1 24 Sep 02:06:29 02:09:24 29° 24° (NNE) 02:12:18 .
MOZHAYETS 4 24 Sep 02:17:32 02:20:59 21° 66° (ENE) 02:24:27
YUBILEINY 24 Sep 02:24:26 02:25:58 11° 288° (WNW) 02:27:29 435.215
UKube-1 24 Sep 02:26:58 02:30:54 35° 262° (W) 02:34:52 .
Tancredo 1 24 Sep 02:30:08 02:32:28 26° 223° (SW) 02:34:47 437.200
DUCHIFAT 1 24 Sep 02:31:23 02:32:48 11° 298° (WNW) 02:34:13 145.980
DX 1 24 Sep 02:35:38 02:38:46 19° 266° (W) 02:41:53 434.975-435.025
Gurwin Techsat 1B 24 Sep 02:36:55 02:42:12 65° 102° (ESE) 02:47:28 435.225
ITUPSAT 1 24 Sep 02:48:50 02:53:21 45° 71° (ENE) 02:57:55 437.325
Oscar 19 24 Sep 02:49:25 02:54:33 66° 287° (WNW) 02:59:38 437.125/150
M-CUBED/EXP-1 PRIME 24 Sep 02:51:58 02:53:59 15° 299° (WNW) 02:55:59 437.505
ISS 24 Sep 03:03:48 03:07:06 74° 34° (NNE) 03:10:23 437.550
BUGSAT 1 24 Sep 03:04:05 03:06:49 17° 295° (WNW) 03:09:34 437.445
RS-15 24 Sep 03:05:21 03:08:24 11° 92° (E) 03:11:26 29.354- 29.394
O/OREOS (USA 219) 24 Sep 03:24:51 03:28:54 33° 300° (WNW) 03:33:02 437.305
BEESAT 24 Sep 03:25:00 03:29:45 78° 257° (WSW) 03:34:33 436.000
nSIGHT-1 24 Sep 03:42:42 03:45:47 40° 222° (SW) 03:48:52 .
AO-7 24 Sep 03:44:33 03:52:11 39° 99° (E) 03:59:46 .
MOZHAYETS 4 24 Sep 03:53:30 03:57:51 40° 262° (W) 04:02:14
ITAMSAT 1 24 Sep 03:55:13 03:59:57 34° 97° (E) 04:04:40 435.822/435.867
KKS-1 24 Sep 04:11:18 04:14:50 24° 67° (ENE) 04:18:22 437.445
Gurwin Techsat 1B 24 Sep 04:18:11 04:21:36 18° 299° (WNW) 04:25:01 435.225
CUBESAT XI-V 24 Sep 04:20:25 04:25:08 82° 76° (ENE) 04:29:51 437.345
BEESAT 3 24 Sep 04:25:23 04:29:22 63° 56° (NE) 04:33:14 437.485
ITUPSAT 1 24 Sep 04:27:57 04:31:22 19° 267° (W) 04:34:49 437.325
BEESAT 2 24 Sep 04:33:56 04:37:25 26° 48° (NE) 04:40:51 435.950
STARS 24 Sep 04:35:07 04:38:01 18° 64° (ENE) 04:40:55 437.465
ISS 24 Sep 04:41:38 04:43:10 13° 230° (SW) 04:44:42 437.550
AO-85 24 Sep 05:04:17 05:08:40 58° 55° (NE) 05:13:23 145.980
RS-15 24 Sep 05:06:13 05:18:03 59° 113° (ESE) 05:29:59 29.354- 29.394
DOVE 4 24 Sep 05:33:48 05:37:35 31° 97° (E) 05:41:31 437.250
ITAMSAT 1 24 Sep 05:34:49 05:39:17 30° 294° (WNW) 05:43:47 435.822/435.867
AO-7 24 Sep 05:37:12 05:45:02 49° 297° (WNW) 05:52:52 .
KKS-1 24 Sep 05:47:15 05:51:12 32° 263° (W) 05:55:11 437.445
CUTE-I 24 Sep 05:48:47 05:50:41 12° 89° (E) 05:52:34 437.470
STRAND 1 24 Sep 06:03:46 06:06:37 15° 60° (ENE) 06:09:28 437.568
BEESAT 3 24 Sep 06:05:10 06:06:20 11° 252° (WSW) 06:07:30 437.485
STARS 24 Sep 06:09:52 06:14:00 44° 261° (W) 06:18:12 437.465
BEESAT 2 24 Sep 06:11:35 06:15:08 30° 245° (WSW) 06:18:38 435.950
XW-2D 24 Sep 06:18:11 06:21:21 24° 95° (E) 06:24:28 145.860 - 145.880
HO-68 24 Sep 06:28:48 06:31:52 13° 87° (E) 06:34:55 435.675
XW-2F 24 Sep 06:29:56 06:33:20 31° 97° (E) 06:36:41 145.980 - 146.000
XW-2B 24 Sep 06:30:19 06:33:47 33° 97° (E) 06:37:13 145.730 - 145.750
AO-85 24 Sep 06:45:50 06:48:44 17° 249° (WSW) 06:51:45 145.980
NUDT-PHONESAT 24 Sep 06:51:19 06:54:53 42° 99° (E) 06:58:25 437.300
XW-2C 24 Sep 06:51:28 06:55:16 63° 101° (ESE) 06:59:00 145.795 - 145.815
LilacSat-2 24 Sep 07:04:24 07:08:15 82° 283° (WNW) 07:12:03 437.200
SEEDS 24 Sep 07:10:41 07:12:13 12° 90° (E) 07:13:45 437.485
DOVE 4 24 Sep 07:11:48 07:15:09 23° 292° (WNW) 07:18:37 437.250
RS-15 24 Sep 07:19:08 07:30:57 49° 317° (NW) 07:42:46 29.354- 29.394
KAITUO 1B 24 Sep 07:20:37 07:24:22 74° 283° (WNW) 07:28:03 145.475/437.950
CUTE-I 24 Sep 07:26:00 07:31:21 84° 285° (WNW) 07:36:41 437.470
AO-7 24 Sep 07:33:36 07:35:47 11° 319° (NW) 07:37:59 .
CUTE 1.7 + AOD 2 24 Sep 07:37:48 07:41:48 40° 98° (E) 07:45:45 437.475
STRAND 1 24 Sep 07:40:06 07:45:11 71° 258° (WSW) 07:50:18 437.568
XW-2D 24 Sep 07:52:23 07:55:24 22° 291° (WNW) 07:58:23 145.860 - 145.880
XW-2F 24 Sep 08:04:35 08:07:13 18° 293° (WNW) 08:09:49 145.980 - 146.000
XW-2B 24 Sep 08:05:09 08:07:42 17° 293° (WNW) 08:10:13 145.730 - 145.750
CUBEBUG 2 24 Sep 08:12:39 08:17:19 57° 100° (E) 08:21:59 437.445
HO-68 24 Sep 08:13:23 08:20:38 79° 105° (ESE) 08:27:49 435.675
FO-29 24 Sep 08:15:32 08:20:23 31° 68° (ENE) 08:24:56 435.910
UWE-3 24 Sep 08:18:30 08:22:52 38° 97° (E) 08:27:12 435.000/436.395/437.385
NUDT-PHONESAT 24 Sep 08:26:32 08:28:22 13° 295° (WNW) 08:30:11 437.300
XW-2A 24 Sep 08:29:39 08:33:05 70° 102° (ESE) 08:36:28 145.665 - 145.685
TIGRISAT 24 Sep 08:34:34 08:35:55 11° 61° (ENE) 08:37:16 435.000
SEEDS 24 Sep 08:44:09 08:48:15 56° 286° (WNW) 08:52:19 437.485
PRISM 24 Sep 08:57:43 08:58:37 11° 62° (ENE) 08:59:32 437.425
Oscar 11 24 Sep 09:00:01 09:03:59 34° 97° (E) 09:07:54 .
AO-73 24 Sep 09:01:23 09:05:53 52° 99° (E) 09:10:18 145.935
ZACube-1 24 Sep 09:04:34 09:09:10 65° 101° (E) 09:13:41 437.345
AAUSAT CUBESAT 2 24 Sep 09:04:50 09:08:57 75° 284° (WNW) 09:13:02 437.432
CUTE-I 24 Sep 09:08:38 09:10:33 12° 303° (WNW) 09:12:29 437.470
CUTE 1.7 + AOD 2 24 Sep 09:14:27 09:17:19 18° 294° (WNW) 09:20:10 437.475
RS-15 24 Sep 09:38:02 09:47:31 24° 348° (NNW) 09:56:50 29.354- 29.394
UNISAT 6 24 Sep 09:44:07 09:48:25 66° 75° (ENE) 09:52:51 437.425
Max Valier Satellite 24 Sep 09:48:40 09:51:17 18° 93° (E) 09:53:51 145.860
CUBEBUG 2 24 Sep 09:50:31 09:53:27 16° 296° (WNW) 09:56:22 437.445
UWE-3 24 Sep 09:55:25 09:59:03 23° 293° (WNW) 10:02:41 435.000/436.395/437.385
FO-29 24 Sep 10:00:19 10:05:27 33° 262° (W) 10:10:14 435.910
HO-68 24 Sep 10:02:25 10:07:34 22° 304° (WNW) 10:12:43 435.675
TIGRISAT 24 Sep 10:07:36 10:11:55 75° 258° (WSW) 10:16:23 435.000
DELFI C3 24 Sep 10:27:00 10:30:55 74° 102° (ESE) 10:34:49 145.870
PRISM 24 Sep 10:29:14 10:33:19 70° 258° (WSW) 10:37:24 437.425
EO-79 24 Sep 10:32:28 10:32:55 10° 61° (ENE) 10:33:23 145.935-145.965
AIST 2D 24 Sep 10:32:43 10:35:27 21° 69° (ENE) 10:38:12 435.315
Oscar 11 24 Sep 10:36:34 10:39:53 22° 293° (WNW) 10:43:12 .
AO-73 24 Sep 10:38:47 10:41:39 17° 296° (WNW) 10:44:30 145.935
ZACube-1 24 Sep 10:42:30 10:44:52 14° 297° (WNW) 10:47:14 437.345
QB50P2 24 Sep 10:44:07 10:46:37 16° 64° (ENE) 10:49:09 145.880/145.840
EO-88 24 Sep 10:46:54 10:50:35 72° 102° (ESE) 10:54:12 145.990 - 145.960
ESTCUBE 1 24 Sep 11:15:38 11:18:06 14° 91° (E) 11:20:34 437.505/2401.250
NANOSAT C BR1 24 Sep 11:17:31 11:21:05 28° 69° (ENE) 11:24:41 145.865
Max Valier Satellite 24 Sep 11:21:51 11:25:08 29° 289° (WNW) 11:28:24 145.860
UNISAT 6 24 Sep 11:24:24 11:25:36 11° 271° (W) 11:26:50 437.425
YUBILEINY 24 Sep 11:28:06 11:35:26 32° 84° (E) 11:42:46 435.215
LO-87 24 Sep 11:40:51 11:44:15 38° 98° (E) 11:47:39 145.935 - 145.965
DUCHIFAT 1 24 Sep 11:44:58 11:49:00 49° 72° (ENE) 11:53:05 145.980
O/OREOS (USA 219) 24 Sep 11:54:54 11:59:23 49° 64° (ENE) 12:03:50 437.305
RS-15 24 Sep 11:55:20 12:05:32 29° 24° (NNE) 12:15:19 29.354- 29.394
POLYITAN 1 24 Sep 11:59:45 12:03:57 86° 257° (WSW) 12:08:14 437.675
M-CUBED/EXP-1 PRIME 24 Sep 12:01:41 12:05:45 44° 68° (ENE) 12:09:33 437.505
EO-79 24 Sep 12:03:50 12:08:02 77° 258° (WSW) 12:12:17 145.935-145.965
AIST 2D 24 Sep 12:05:40 12:08:31 22° 265° (W) 12:11:23 435.315
BUGSAT 1 24 Sep 12:17:40 12:21:09 29° 69° (ENE) 12:24:41 437.445
QB50P2 24 Sep 12:17:57 12:22:00 47° 261° (W) 12:26:06 145.880/145.840
Gurwin Techsat 1B 24 Sep 12:21:21 12:24:10 15° 59° (ENE) 12:26:58 435.225
Oscar 19 24 Sep 12:28:22 12:32:26 24° 65° (ENE) 12:36:32 437.125/150
NO-84 24 Sep 12:40:34 12:44:23 48° 134° (SE) 12:47:55 435.350 FM
